Location: Unspecified
(0.0000°N, 0.0000°E)
Time: 09:17:22
(UTC+00:00)

HTV-X1 - Pass Details

Date: 13 April 2026
Orbit: 463 x 473 km, 51.6° (Epoch: 10 April)

Event Time Altitude Azimuth Distance (km) Brightness Sun altitude
Exits shadow 05:06:07 19° 292° (WNW) 1,162 ? -13.5°
Maximum altitude 05:06:42 20° 306° (NW) 1,136 ? -13.3°
Drops below altitude 10° 05:09:23 10° 354° (N) 1,605 ? -12.6°
Sets 05:11:57 0° 12° (NNE) 2,479 ? -12.0°
